www.pogodaiklimat.ru

Погода и климат >> Архив погоды >> Россия >> Ненецкий АО >> Канин Нос


ПОГОДА в Канином Носе

  • Прогноз погоды в Канином Носе
  • Монитор погоды в Канином Носе

АРХИВ ПОГОДЫ в Канином Носе

Время (UTC), дата Ветер
(напр.,м/с)
 
Видим.   Явления Облачность Т
(С)
Тd
(С)
f
(%)
Тe
(С)
Тes
(С)
Комфортность P
(гПа)
Po
(гПа)
Тmin
(С)
Tmax
(С)
R
(мм)
R24
(мм)
S
(см)
06 12.08 ЮВ 10-13
{16}
20 км 9/0
[Ac trans Cs]
+7.1 +6.1 93 +1 +1 1014.7 1008.7
09 12.08 Ю 9-12
{13}
20 км 5/0
[Ac trans Cs]
+8.9 +6.4 84 +4 +5 1014.8 1008.8
12 12.08 Ю 9-12
{13}
20 км 3/0
[Ac trans Cs]
+10.2 +6.9 80 +6 +7 1014.4 1008.4
15 12.08 Ю 9-11
{14}
20 км 6/0
[Ac trans Cs]
+9.8 +6.9 82 +5 +6 1013.8 1007.8 +10.4
18 12.08 Ю 7
{12}
20 км 8/0
[Ac trans Cc]
+8.3 +6.4 88 +4 +4 1013.6 1007.6
21 12.08 Ю 9-11
{12}
20 км 6/0
[Ac trans Cc]
+7.4 +5.8 90 +2 +2 1013.7 1007.7
00 13.08 Ю 8
{12}
20 км 4/0
[Ac trans Cc]
+6.6 +6.2 97 +1 +1 1013.9 1007.9
03 13.08 Ю 7
{11}
20 км 3/0
[Cc]
+7.3 +6.4 94 +2 +3 1013.5 1007.5 +6.5
06 13.08 ЮВ 8-10
{11}
20 км 4/0
[Cc]
+8.7 +6.8 88 +4 +5 1013.0 1007.0
09 13.08 ЮВ 10-13
{13}
20 км 4/0
[Ci fib]
+9.8 +7.2 84 +5 +6 1012.8 1006.8
12 13.08 ЮВ 10-14
{14}
20 км 6/0
[Cc]
+10.0 +7.2 83 +6 +6 1012.0 1006.0
15 13.08 ЮВ 9-12
{14}
20 км 3/0
[Ac trans Ci fib]
+10.2 +6.4 77 +6 +6 1011.2 1005.2 +10.6
18 13.08 ЮВ 7
{12}
20 км 9/0
[Ac As]
+9.8 +6.7 81 +6 +6 1011.0 1005.0
21 13.08 ЮВ 7-10
{10}
20 км 9/3 600 м
[Sc Ac As]
+10.9 +6.6 75 +8 +8 1010.0 1004.0
00 14.08 ЮВ 7
{11}
20 км 9/0
[Ac As Cc]
+10.4 +6.3 76 +7 +7 1009.1 1003.1
03 14.08 ЮВ 8-10
{10}
20 км 8/0
[Ac As Ci fib]
+9.0 +5.4 78 +5 +5 1008.4 1002.4 +8.9
06 14.08 ЮВ 8-10
{12}
20 км 6/0
[Ac trans Ci fib]
+11.6 +6.3 70 +8 +9 1007.8 1001.9
09 14.08 Ю 6
{10}
20 км 5/0
[Ac trans Ci fib]
+11.5 +7.6 77 +9 +11 1007.1 1001.2
12 14.08 ЮВ 5 20 км 8/0
[Ac trans Cs]
+13.0 +6.8 66 +11 +13 1006.7 1000.8
15 14.08 ЮВ 4 20 км 9/0
[Ac As Ci fib]
+12.7 +6.1 64 +11 +11 1006.2 1000.3 +14.9
18 14.08 ЮВ 5 20 км 8/0
[Ac lent Cc]
+10.8 +4.5 65 +8 +8 1006.0 1000.0
21 14.08 ЮВ 6 20 км 9/3 600 м
[Sc Ac lent Cc]
+10.4 +5.9 74 +7 +7 1005.6 999.6
00 15.08 ЮВ 6 20 км 8/0
[Ac lent]
+9.5 +7.0 84 +6 +6 1005.5 999.6
03 15.08 ЮВ 8-11
{11}
20 км 9/0
[Ac lent]
+9.5 +8.7 95 +5 +5 1005.1 999.2 +8.7
06 15.08 ЮВ 9-11
{12}
20 км 10/0
[Ac lent]
+10.1 +9.9 99 +6 +6 1005.3 999.4
09 15.08 ЮВ 9-11
{12}
20 км 10/3 600 м
[Sc Ac lent]
+10.9 +10.3 96 +7 +7 999.5 993.6
12 15.08 ЮВ 5
{12}
20 км 9/3 600 м
[Sc Ac trans]
+12.5 +11.4 93 +10 +11 1004.6 998.9
15 15.08 ЮВ 4 20 км 8/4 600 м
[Sc Ac lent]
+13.7 +11.9 89 +12 +12 1004.4 998.6 +14.5
18 15.08 В 3 20 км 8/0
[Ac lent Cc]
+10.6 +10.4 99 +8 +8 1003.9 998.0
21 15.08 ЮВ 5 20 км 9/4 600 м
[Sc Ac lent Cc]
+12.4 +11.8 96 +10 +10 1002.4 996.6
00 16.08 В 2 20 км 9/3 600 м
[Sc Ac lent Cc]
+11.3 +11.3 100 +10 +10 1002.2 996.4
03 16.08 СВ 4 20 км слаб. ливневой дождь {туман} туман ?/? +8.6 +8.6 100 +5 +5 1001.6 995.7 +8.6 0.4
06 16.08 С 5 500 м слаб. ливневой дождь {туман} туман ?/? +8.4 +8.4 100 +5 +5 1002.4 996.5 +8.2
09 16.08 С 6 4000 м дымка {ливн. осадки, дождь} 9/6 600 м
[Cb cap Ac lent]
+8.4 +8.4 100 +4 +5 1003.7 997.8
12 16.08 С 5 20 км {ливн. осадки, дождь} 10/3 600 м
[Sc Ac As]
+8.5 +8.5 100 +5 +5 1006.4 1000.4
15 16.08 С 4 20 км {ливн. осадки} 10/3 300 м
[Cb cap Ac As]
+8.2 +8.2 100 +5 +5 1008.9 1002.9 +10.6 5
18 16.08 С 4 500 м туман {ливн. осадки} ?/? +7.3 +7.3 100 +4 +4 1010.6 1004.6
21 16.08 С 5 500 м туман ?/? +6.6 +6.6 100 +2 +2 1012.3 1006.3
00 17.08 СЗ 2 2000 м в посл. час туман 10/10 300 м
[St]
+6.0 +6.0 100 +3 +3 1013.9 1007.8
03 17.08 штиль 0 500 м туман ?/? +5.4 +5.4 100 +4 +4 1014.9 1008.8 +5.4
06 17.08 Ю 4 500 м туман ?/? +6.7 +6.7 100 +3 +3 1015.5 1009.5 +5.3
09 17.08 Ю 7 4000 м дымка {туман} 10/3 600 м
[Sc Ac As Ci fib]
+7.7 +7.7 100 +3 +4 1015.8 1009.8
12 17.08 ЮВ 8-10
{11}
20 км {туман} 6/3 600 м
[Sc Ac trans Ci fib]
+8.8 +8.5 98 +4 +5 1016.1 1010.1
15 17.08 ЮВ 11-13
{13}
4000 м дымка 9/6 300 м
[Sc Ac trans Ci fib]
+8.1 +8.1 100 +2 +2 1015.9 1009.9 +9.0
18 17.08 ЮВ 11-14
{15}
1000 м дымка 9/8 300 м
[Sc Ac lent Ci fib]
+8.6 +8.6 100 +3 +3 1015.8 1009.8
21 17.08 ЮВ 9-12
{14}
20 км 6/3 600 м
[Sc Ac trans Ci fib]
+9.1 +9.1 100 +4 +4 1016.1 1010.1
00 18.08 ЮВ 8-11
{12}
20 км 9/8 600 м
[Sc Ac lent Ci fib]
+10.2 +9.7 97 +6 +6 1016.8 1010.8
03 18.08 ЮВ 7-10
{11}
20 км 8/3 600 м
[Sc Ac As Ci fib]
+10.1 +9.6 97 +6 +6 1016.9 1010.9 +7.8
06 18.08 ЮВ 9-12
{12}
20 км 4/0
[As trans Ci ing]
+11.7 +10.4 92 +8 +8 1017.3 1011.4
09 18.08 ЮВ 9-14
{14}
20 км 8/0
[Ac trans Ci fib]
+12.3 +10.5 89 +9 +9 1017.6 1011.7
12 18.08 ЮВ 9-12
{14}
20 км 8/0
[Ac trans Ci fib]
+12.7 +10.2 85 +9 +10 1018.2 1012.3
15 18.08 Ю 10-15
{15}
20 км 6/0
[Ac trans Ci fib]
+12.4 +9.8 84 +9 +9 1018.2 1012.3 +13.5
18 18.08 ЮВ 10-13
{14}
20 км 6/0
[Ac trans Ci fib]
+12.1 +8.6 79 +8 +8 1019.1 1013.2
21 18.08 ЮВ 9-11
{14}
20 км 3/0
[Ac trans Cs]
+11.5 +8.3 81 +8 +8 1019.9 1014.0
00 19.08 ЮВ 7
{12}
20 км 3/0
[Ac trans Ci fib]
+10.9 +9.2 89 +7 +7 1020.6 1014.6
03 19.08 ЮВ 8-11
{11}
20 км 9/0
[Ac trans Cs]
+12.7 +10.4 86 +10 +10 1020.4 1014.5 +10.6

 

Местоположение метеостанции Канин Нос (Ненецкий АО, Россия): широта 68.65 долгота 43.30 высота над уровнем моря 49 м.

В архиве по умолчанию представлена погода в Канином Носе за последнюю неделю. Архивные данные за месяц целиком и за предыдущие месяцы, начиная с января 2011 года, Вы можете получить, выбрав интересующий диапазон дат из раскрывающегося списка и нажав кнопку "Ввод!".


*Определитесь, кто Вы:
робот инопланетянин человек

Внимание! Время в таблицах - всемирное. Для получения местного времени необходимо прибавить поправку, которая равна 3 ч.

Смотрите также архив погоды в соседних городах и на ближайших метеорологических станциях:

Погода в Шойне (Ненецкий АО, Россия) (93 км)
Погода в Святом Носе (Мурманская область, Россия) (155 км)
Погода на Мысе Микулкин (Ненецкий АО, Россия) (168 км)
Погода в Иоканьге (Мурманская область, Россия) (170 км)
Погода на Моржовец Острове (Архангельская область, Россия) (217 км)
Погода в Каневке (Мурманская область, Россия) (227 км)
Погода в Неси (Ненецкий АО, Россия) (235 км)
Погода в Бугрино (Ненецкий АО, Россия) (244 км)
Погода в Индиге (Ненецкий АО, Россия) (247 км)
Погода на Колгуевом Острове (Ненецкий АО, Россия) (249 км)

Пояснения к столбцам:

Ветер - указаны скорость ветра в м/с - средняя за 10 мин, порывы в срок и между сроками (в фигурных скобках) и направление, откуда дует ветер: С - северный, СВ - северо-восточный, В - восточный, ЮВ - юго-восточный, Ю - южный, ЮЗ - юго-западный, З - западный, СЗ - северо-западный.
Видимость - горизонтальная дальность видимости в метрах или километрах. При видимости от 1 до 10 км при отсутствии осадков обычно наблюдается дымка, при ухудшении видимости до 1 км и менее - туман. В сухую погоду видимость может ухудшаться дымом, пылью или мглою.
Явления - указаны атмосферные явления, наблюдавшиеся в срок или в последний час перед сроком; фигурными скобками обозначены явления, наблюдавшиеся между сроками (за 1-3 часа до срока); квадратными скобками обозначены град или гололедные отложения с указанием их диаметра в мм.
Облачность - указаны через наклонную черту общая и нижняя облачность в баллах и высота нижней границы облаков в метрах; квадратными скобками обозначены формы облаков: Ci - перистые, Cs - перисто-слоистые, Cc - перисто-кучевые, Ac - высококучевые, As - высокослоистые, Sc - слоисто-кучевые, Ns - слоисто-дождевые, Cu - кучевые, Cb - кучево-дождевые. Подробнее классификацию облаков см. в Атласе облаков (PDF).
T - Температура воздуха - температура, измеренная на высоте 2 м над землей.
Td - Температура точки росы - температура, при понижении до которой содержащийся в воздухе водяной пар достигнет насыщения.
f - Относительная влажность воздуха - влажноcть воздуха, измеренная на высоте 2 м над землей.
Te - Эффективная температура - температура, которую ощущает одетый по сезону человек в тени. Характеристика душности погоды. При расчете учитывается влияние влажности воздуха и скорости ветра на теплоощущения человека.
Tes - Эффективная температура на солнце - температура, которую ощущает человек, с поправкой на солнечный нагрев. Характеристика знойности погоды. Зависит от высоты солнца над горизонтом, облачности и скорости ветра. Ночью, в пасмурную погоду, а также при ветре 12 м/с и более поправка равна нулю.
P - Атмосферное давление - приведенное к уровню моря атмосферное давление.
Po - Атмосферное давление - измеренное на уровне метеостанции атмосферное давление.
Tmin - Минимальная температура - минимум температуры воздуха на высоте 2 м над землей.
Tmax - Максимальная температура - максимум температуры воздуха на высоте 2 м над землей.
R - Количество осадков - Количество выпавших осадков за период времени, мм. При наведении курсора мыши на число - период времени, за который выпало указанное количество осадков.
R24 - Количество осадков - Количество выпавших осадков за 24 часа, мм.
S - Снежный покров - Высота снежного покрова, см. При наведении курсора мыши на число - состояние снежного покрова и степень покрытия местности в баллах.